PBO Station Position Time Series. Reference Frame : NAM14
Format Version,1.1.0
4-character ID,P393
Station name,Barren_VlyOR2007
Begin Date, 2007-10-26
End Date, 2019-08-06
Release Date, 2019-10-03
Reference position, 43.2344953427 North Latitude, -117.8920387581 East Longitude, 1238.31249 meters elevation,
Date, North (mm), East (mm), Vertical (mm), North Std. Deviation (mm), East Std. Deviation (mm),              Vertical Std. Deviation (mm), Quality,
2007-10-26,0.00, 0.00, 0.00, 2.17, 1.65, 7.34, repro,
2007-10-27,-0.81, 0.45, 0.49, 2.15, 1.60, 7.19, repro,
2007-10-28,-2.65, 1.33, 2.08, 2.15, 1.60, 7.16, repro,
2007-10-29,-2.23, 1.70, 5.71, 2.14, 1.61, 7.19, repro,
2007-10-30,-1.67, 0.48, -2.30, 2.14, 1.60, 7.15, repro,
2007-10-31,-1.36, 0.43, -0.74, 2.14, 1.61, 7.19, repro,
2007-11-01,-1.59, 0.82, 0.37, 2.11, 1.57, 7.02, repro,
2007-11-02,-1.58, 0.70, 4.04, 2.12, 1.58, 7.09, repro,
2007-11-03,-0.92, 0.72, 0.68, 2.10, 1.58, 7.02, repro,
2007-11-04,-1.33, 0.27, 1.58, 2.09, 1.57, 6.99, repro,
2007-11-05,-1.19, 0.49, -2.13, 2.09, 1.56, 6.92, repro,
2007-11-06,-1.68, 0.86, -1.63, 2.16, 1.66, 7.38, repro,
2007-11-07,-0.89, 1.29, 2.78, 2.13, 1.57, 7.06, repro,
2007-11-08,-1.51, 0.85, 6.99, 2.14, 1.61, 7.15, repro,
2007-11-09,-1.25, 0.71, -0.40, 2.14, 1.61, 7.13, repro,
2007-11-10,-2.19, 0.37, 4.54, 2.10, 1.57, 6.96, repro,
2007-11-11,-0.27, 0.69, 3.93, 2.10, 1.57, 6.97, repro,
2007-11-12,-2.07, 0.91, 3.55, 2.12, 1.58, 7.06, repro,
2007-11-13,-1.14, -0.73, 13.11, 2.11, 1.57, 7.06, repro,
2007-11-14,-1.54, 0.70, 2.26, 2.13, 1.59, 7.11, repro,
2007-11-15,-0.61, 1.22, -1.67, 2.12, 1.59, 7.04, repro,
2007-11-16,-2.61, -0.10, 0.27, 2.10, 1.57, 6.98, repro,
2007-11-17,-1.79, 1.46, 0.65, 2.12, 1.57, 7.03, repro,
2007-11-18,-1.40, -0.30, 10.33, 2.15, 1.60, 7.18, repro,
2007-11-19,-2.02, -1.74, 8.13, 2.11, 1.57, 7.01, repro,
2007-11-20,-2.20, 1.43, 1.61, 2.17, 1.66, 7.24, repro,
2007-11-21,-1.15, -0.09, -7.31, 2.16, 1.66, 7.21, repro,
2007-11-22,-0.53, 0.94, -4.67, 2.16, 1.63, 7.15, repro,
2007-11-23,-0.63, 0.63, 2.46, 2.21, 1.72, 7.43, repro,
2007-11-24,-0.55, -0.17, 2.02, 2.19, 1.67, 7.29, repro,
2007-11-25,-1.97, -0.49, 1.26, 2.19, 1.68, 7.30, repro,
2007-11-26,-1.88, 0.58, -2.78, 2.25, 1.75, 7.70, repro,
2007-11-27,-1.68, -0.90, -4.02, 2.17, 1.68, 7.27, repro,
2007-11-28,-1.89, 1.51, -7.07, 2.19, 1.67, 7.27, repro,
2007-11-29,-1.80, -0.92, -2.02, 2.20, 1.65, 7.34, repro,
2007-11-30,-1.76, -0.71, 0.57, 2.22, 1.70, 7.37, repro,
2007-12-01,-1.40, -0.88, 5.71, 2.26, 1.77, 7.76, repro,
2007-12-02,-1.11, -0.04, 2.31, 2.31, 1.78, 7.94, repro,
2007-12-03,-2.58, -0.39, 2.97, 2.34, 1.75, 7.93, repro,
2007-12-04,-2.35, -0.05, -6.95, 2.38, 1.89, 8.21, repro,
2007-12-05,-1.93, 1.21, 0.31, 2.34, 1.84, 8.15, repro,
2007-12-06,-1.86, -0.51, 3.41, 2.55, 2.09, 8.86, repro,
2007-12-07,-1.90, -1.12, -1.33, 2.43, 1.94, 8.39, repro,
2007-12-08,-2.86, -0.31, -0.77, 2.36, 1.79, 7.81, repro,
2007-12-09,-1.11, -0.19, -2.26, 2.56, 2.10, 8.84, repro,
2007-12-10,-1.31, 0.58, 1.16, 2.29, 1.75, 7.58, repro,
2007-12-11,-1.50, -0.34, -3.85, 2.25, 1.72, 7.52, repro,
2007-12-12,-0.79, -1.01, -7.72, 2.31, 1.73, 7.69, repro,
2007-12-13,-2.03, 0.12, -6.50, 2.23, 1.68, 7.33, repro,
2007-12-14,-1.53, 0.81, -0.92, 2.17, 1.60, 7.14, repro,
2007-12-15,-2.48, 0.86, 4.77, 2.19, 1.60, 7.21, repro,
2007-12-16,-1.18, 0.33, -0.87, 2.24, 1.66, 7.36, repro,
2007-12-17,-1.71, 0.60, 6.47, 2.20, 1.66, 7.29, repro,
2007-12-18,-1.03, -0.02, 7.57, 2.17, 1.64, 7.27, repro,
2007-12-19,-1.77, 0.62, 2.27, 2.23, 1.65, 7.42, repro,
2007-12-20,-2.58, 2.46, 2.21, 2.18, 1.61, 7.23, repro,
2007-12-21,-0.44, 0.93, -0.48, 2.28, 1.73, 7.77, repro,
2007-12-22,-1.07, 0.37, -7.09, 2.26, 1.69, 7.58, repro,
2007-12-23,-1.26, 1.47, -10.90, 2.20, 1.67, 7.35, repro,
2007-12-24,-1.06, 0.10, -6.39, 2.23, 1.68, 7.34, repro,
2007-12-25,-1.17, 1.47, -0.45, 2.27, 1.73, 7.51, repro,
2007-12-26,-0.79, -0.19, 3.98, 2.22, 1.62, 7.31, repro,
2007-12-27,-1.49, 1.44, 5.58, 2.24, 1.66, 7.47, repro,
2007-12-28,-1.60, 1.05, 0.70, 2.21, 1.65, 7.35, repro,
2007-12-29,-1.76, 2.12, 2.12, 2.21, 1.65, 7.34, repro,
2007-12-30,0.17, -3.14, -2.70, 2.20, 1.62, 7.23, repro,
2007-12-31,-2.39, 3.60, -0.95, 2.18, 1.58, 7.13, repro,
2008-01-01,-1.32, 1.93, -10.66, 2.18, 1.58, 7.15, repro,
2008-01-02,-2.54, 1.00, -6.51, 2.17, 1.57, 7.13, repro,
2008-01-03,-1.55, 2.07, 1.02, 2.11, 1.54, 6.95, repro,
2008-01-04,-2.13, 2.85, 11.65, 2.11, 1.53, 6.92, repro,
2008-01-05,-3.89, 2.20, 15.46, 2.15, 1.57, 7.09, repro,
2008-01-06,-1.92, 0.25, 6.35, 2.14, 1.56, 7.06, repro,
2008-01-07,-2.82, 1.47, 6.39, 2.13, 1.55, 7.00, repro,
2008-01-08,-2.73, 2.37, -4.04, 2.18, 1.56, 7.11, repro,
2008-01-09,-3.57, 1.44, 4.67, 2.17, 1.56, 7.09, repro,
2008-01-10,-2.76, 1.83, -0.30, 2.12, 1.55, 6.97, repro,
2008-01-11,-1.82, 1.20, -3.51, 2.18, 1.59, 7.18, repro,
2008-01-12,-2.90, 2.83, 0.26, 2.13, 1.56, 7.02, repro,
2008-01-13,-2.69, 3.04, -5.99, 2.12, 1.56, 6.98, repro,
2008-01-14,-2.11, 2.28, -4.30, 2.12, 1.56, 7.03, repro,
2008-01-15,-3.02, 1.71, -2.47, 2.10, 1.55, 6.91, repro,
2008-01-16,-1.55, 1.69, -7.54, 2.17, 1.59, 7.19, repro,
2008-01-17,-0.37, 1.86, -5.49, 2.17, 1.59, 7.13, repro,
2008-01-18,-1.74, 2.67, -4.71, 2.13, 1.59, 7.11, repro,
2008-01-19,-1.45, 2.72, -4.89, 2.12, 1.57, 7.02, repro,
2008-01-20,-3.42, 3.63, -2.54, 2.12, 1.56, 7.02, repro,
2008-01-21,-2.39, 2.87, -2.62, 2.10, 1.56, 6.93, repro,
2008-01-22,-2.31, 2.75, -6.14, 2.12, 1.56, 7.01, repro,
2008-01-23,-2.63, 3.49, -5.76, 2.12, 1.57, 7.05, repro,
2008-01-24,-3.33, 3.15, 2.16, 2.12, 1.56, 7.01, repro,
2008-01-25,-3.80, 3.21, -2.82, 2.11, 1.57, 7.04, repro,
2008-01-26,-4.31, 3.71, -1.28, 2.10, 1.56, 6.94, repro,
2008-01-27,-5.12, 4.55, 6.42, 2.12, 1.56, 7.02, repro,
2008-01-28,-3.30, 3.08, 7.63, 2.12, 1.57, 7.03, repro,
2008-01-29,-3.62, 3.80, 7.08, 2.22, 1.66, 7.34, repro,
2008-01-30,-2.32, 1.90, 0.33, 2.22, 1.63, 7.27, repro,
2008-01-31,-2.77, 4.09, -2.65, 2.10, 1.55, 6.97, repro,
2008-02-01,-3.84, 4.15, -5.66, 2.10, 1.55, 6.95, repro,
2008-02-02,-2.15, 4.10, -4.93, 2.12, 1.56, 7.03, repro,
2008-02-03,-2.95, 5.44, 6.13, 2.09, 1.56, 6.96, repro,
2008-02-04,-2.78, 4.33, -2.04, 2.12, 1.55, 6.99, repro,
2008-02-05,-2.92, 3.73, -5.63, 2.16, 1.61, 7.15, repro,
2008-02-06,-3.53, 3.60, -0.52, 2.15, 1.62, 7.18, repro,
2008-02-07,-0.06, 2.34, -7.78, 2.16, 1.59, 7.16, repro,
2008-02-08,-3.19, 5.14, 1.66, 2.10, 1.56, 7.02, repro,
2008-02-09,-2.96, 5.71, 5.23, 2.10, 1.55, 6.96, repro,
2008-02-10,-3.56, 5.22, -5.93, 2.10, 1.55, 6.95, repro,
2008-02-11,-5.90, 6.45, 0.68, 2.11, 1.55, 6.97, repro,
2008-02-12,-3.01, 4.71, -8.26, 2.11, 1.56, 6.98, repro,
2008-02-13,-3.89, 5.35, 2.52, 2.11, 1.56, 6.99, repro,
2008-02-14,-2.91, 4.00, -3.77, 2.10, 1.56, 6.97, repro,
2008-02-15,-3.04, 4.83, -6.58, 2.14, 1.60, 7.12, repro,
2008-02-16,-4.13, 4.89, -2.75, 2.10, 1.55, 6.95, repro,
2008-02-17,-4.06, 4.56, -6.72, 2.11, 1.55, 6.97, repro,
2008-02-18,-3.73, 4.50, -4.62, 2.10, 1.55, 6.94, repro,
2008-02-19,-3.79, 4.69, 0.86, 2.12, 1.56, 7.02, repro,
2008-02-20,-3.23, 4.71, -0.65, 2.11, 1.56, 6.97, repro,
2008-02-21,-3.77, 4.88, 2.26, 2.11, 1.56, 6.97, repro,
2008-02-22,-4.00, 4.07, 2.74, 2.12, 1.57, 7.02, repro,
2008-02-23,-4.28, 4.33, -1.14, 2.11, 1.56, 6.99, repro,
2008-02-24,-3.81, 4.59, 0.17, 2.11, 1.55, 6.97, repro,
2008-02-25,-5.85, 4.79, 5.71, 2.13, 1.57, 7.06, repro,
2008-02-26,-2.33, 4.16, -11.85, 2.12, 1.56, 7.01, repro,
2008-02-27,-4.11, 3.95, -10.27, 2.16, 1.60, 7.16, repro,
2008-02-28,-3.24, 3.67, -10.39, 2.20, 1.65, 7.40, repro,
2008-02-29,-4.38, 3.54, -7.47, 2.11, 1.56, 6.98, repro,
2008-03-01,-3.78, 2.99, -0.13, 2.11, 1.55, 6.97, repro,
2008-03-02,-3.55, 4.42, -10.02, 2.12, 1.56, 7.01, repro,
2008-03-03,-3.51, 3.66, -7.27, 2.11, 1.56, 7.00, repro,
2008-03-04,-3.00, 3.88, -12.05, 2.12, 1.57, 7.04, repro,
2008-03-05,-3.94, 3.98, -9.98, 2.20, 1.67, 7.42, repro,
2008-03-06,-3.98, 3.90, -9.46, 2.15, 1.60, 7.21, repro,
2008-03-07,-4.16, 4.73, -6.97, 2.11, 1.55, 6.95, repro,
2008-03-08,-4.11, 4.91, -4.39, 2.16, 1.60, 7.19, repro,
2008-03-09,-4.16, 3.37, -4.61, 2.14, 1.59, 7.13, repro,
2008-03-10,-3.95, 4.61, -11.56, 2.11, 1.56, 6.99, repro,
2008-03-11,-4.17, 3.18, -0.78, 2.11, 1.55, 6.97, repro,
2008-03-12,-3.79, 3.03, -2.96, 2.15, 1.59, 7.17, repro,
2008-03-13,-5.86, 2.74, 7.81, 2.14, 1.59, 7.16, repro,
2008-03-14,-3.19, 3.77, 6.62, 2.15, 1.59, 7.19, repro,
2008-03-15,-3.32, 4.13, -1.91, 2.10, 1.56, 7.00, repro,
2008-03-16,-3.33, 3.61, -0.64, 2.16, 1.59, 7.18, repro,
2008-03-17,-4.95, 4.87, -1.40, 2.27, 1.71, 7.71, repro,
2008-03-18,-4.31, 3.55, -4.83, 2.16, 1.63, 7.28, repro,
2008-03-19,-3.05, 3.85, -1.82, 2.15, 1.59, 7.14, repro,
2008-03-20,-3.20, 3.81, 0.27, 2.14, 1.59, 7.13, repro,
2008-03-21,-4.34, 4.63, -6.12, 2.14, 1.59, 7.16, repro,
2008-03-22,-2.63, 4.33, -14.10, 2.15, 1.58, 7.11, repro,
2008-03-23,-3.69, 4.75, -9.27, 2.15, 1.58, 7.14, repro,
2008-03-24,-5.37, 5.88, 2.29, 2.15, 1.59, 7.12, repro,
2008-03-25,-4.33, 3.25, 2.25, 2.18, 1.62, 7.22, repro,
2008-03-26,-3.10, 3.85, 0.28, 2.19, 1.64, 7.28, repro,
2008-03-27,-4.79, 4.16, 2.36, 2.18, 1.63, 7.26, repro,
2008-03-28,-3.28, 3.93, -5.22, 2.16, 1.58, 7.02, repro,
2008-03-29,-6.44, 5.65, 10.32, 2.15, 1.56, 7.06, repro,
2008-03-30,-2.33, 4.15, -4.62, 2.12, 1.55, 6.97, repro,
2008-03-31,-2.33, 3.60, -4.51, 2.13, 1.57, 7.09, repro,
2008-04-01,-2.62, 3.66, -7.70, 2.14, 1.57, 7.11, repro,
2008-04-02,-3.62, 4.60, -5.04, 2.21, 1.57, 7.19, repro,
2008-04-03,-3.64, 3.82, -4.65, 2.14, 1.56, 7.05, repro,
2008-04-04,-3.47, 4.76, -2.18, 2.14, 1.56, 7.05, repro,
2008-04-05,-5.31, 5.53, 1.52, 2.14, 1.56, 7.06, repro,
2008-04-06,-3.97, 5.34, -2.42, 2.14, 1.57, 7.09, repro,
2008-04-07,-3.48, 4.81, -4.22, 2.15, 1.57, 7.12, repro,
2008-04-08,-3.46, 4.13, -4.10, 2.14, 1.54, 7.03, repro,
2008-04-09,-3.08, 4.50, 2.07, 2.13, 1.54, 7.02, repro,
2008-04-10,-3.81, 6.50, 0.09, 2.13, 1.56, 7.04, repro,
2008-04-11,-3.56, 3.86, -7.72, 2.14, 1.56, 7.09, repro,
2008-04-12,-2.94, 4.37, -10.48, 2.14, 1.57, 7.14, repro,
2008-04-13,-3.01, 4.63, -6.88, 2.15, 1.55, 7.08, repro,
2008-04-14,-3.21, 4.16, -1.46, 2.13, 1.54, 7.01, repro,
2008-04-15,-3.13, 3.38, 3.25, 2.17, 1.62, 7.20, repro,
2008-04-16,-4.53, 4.29, 0.97, 2.17, 1.62, 7.23, repro,
2008-04-17,-2.86, 3.51, -4.79, 2.13, 1.56, 7.10, repro,
2008-04-18,-4.00, 2.97, -7.11, 2.15, 1.55, 7.07, repro,
2008-04-19,-3.55, 3.84, 2.18, 2.15, 1.55, 7.11, repro,
2008-04-20,-5.06, 5.41, 1.72, 2.14, 1.55, 7.09, repro,
2008-04-21,-3.74, 3.51, -1.85, 2.15, 1.56, 7.14, repro,
2008-04-22,-4.29, 3.88, 2.83, 2.14, 1.55, 7.11, repro,
2008-04-23,-3.55, 3.18, -0.95, 2.16, 1.58, 7.20, repro,
2008-04-24,-4.31, 5.19, -7.46, 2.18, 1.58, 7.23, repro,
2008-04-25,-4.79, 4.69, -4.77, 2.15, 1.55, 7.11, repro,
2008-04-26,-3.27, 4.41, -10.72, 2.24, 1.58, 7.26, repro,
2008-04-27,-3.87, 4.78, -7.28, 2.24, 1.58, 7.22, repro,
2008-04-28,-4.03, 4.22, -6.01, 2.24, 1.58, 7.27, repro,
2008-04-29,-3.71, 3.85, 5.66, 2.29, 1.58, 7.27, repro,
2008-04-30,-3.98, 3.77, -0.94, 2.21, 1.58, 7.19, repro,
2008-05-01,-2.75, 3.81, -5.14, 2.20, 1.59, 7.22, repro,
2008-05-02,-3.53, 4.28, -4.46, 2.21, 1.60, 7.27, repro,
2008-05-03,-3.23, 4.13, -5.30, 2.19, 1.57, 7.13, repro,
2008-05-04,-2.80, 3.95, -3.63, 2.15, 1.54, 7.03, repro,
2008-05-05,-3.73, 4.07, -5.85, 2.19, 1.57, 7.13, repro,
2008-05-06,-3.48, 2.88, -6.35, 2.20, 1.57, 7.17, repro,
2008-05-07,-4.90, 5.05, 3.21, 2.19, 1.58, 7.20, repro,
2008-05-08,-4.39, 4.03, -0.85, 2.18, 1.57, 7.16, repro,
2008-05-09,-3.53, 4.02, -2.31, 2.17, 1.57, 7.15, repro,
2008-05-10,-3.52, 4.23, -2.02, 2.16, 1.54, 7.02, repro,
2008-05-11,-4.07, -1.03, 3.00, 2.19, 1.57, 7.17, repro,
2008-05-12,-2.94, 3.57, -0.80, 2.21, 1.57, 7.17, repro,
2008-05-13,-3.95, 3.92, -1.04, 2.17, 1.54, 7.06, repro,
2008-05-14,-7.56, 6.73, -0.59, 2.17, 1.54, 7.05, repro,
2008-05-15,-2.68, 2.74, 0.41, 2.17, 1.54, 7.06, repro,
2008-05-16,-3.91, 4.65, -10.57, 2.17, 1.55, 7.06, repro,
2008-05-17,-3.89, 3.23, -4.30, 2.18, 1.56, 7.15, repro,
2008-05-18,-3.87, 3.02, 0.37, 2.21, 1.57, 7.18, repro,
2008-05-19,-4.00, 4.90, 0.99, 2.15, 1.54, 7.04, repro,
2008-05-20,-4.00, 3.99, -2.35, 2.24, 1.59, 7.30, repro,
2008-05-21,-3.68, 3.78, 5.33, 2.17, 1.55, 7.11, repro,
2008-05-22,-2.51, 4.37, 2.80, 2.18, 1.58, 7.25, repro,
2008-05-23,-3.43, 3.68, 3.17, 2.15, 1.56, 7.11, repro,
2008-05-24,-2.39, 3.44, -4.84, 2.15, 1.54, 7.06, repro,
2008-05-25,-3.32, 4.56, 0.74, 2.16, 1.56, 7.13, repro,
2008-05-26,-2.69, 4.06, 7.84, 2.18, 1.58, 7.26, repro,
2008-05-27,-4.31, 5.21, -5.89, 2.14, 1.55, 7.08, repro,
2008-05-28,-2.53, 4.99, -4.14, 2.14, 1.55, 7.08, repro,
2008-05-29,-3.45, 3.78, -2.01, 2.18, 1.58, 7.16, repro,
2008-05-30,-3.30, 4.03, -1.95, 2.16, 1.56, 7.13, repro,
2008-05-31,-2.64, 4.54, -4.37, 2.17, 1.55, 7.14, repro,
2008-06-01,-4.35, 5.41, -3.65, 2.29, 1.58, 7.49, repro,
2008-06-02,-3.47, 3.38, -0.17, 2.18, 1.61, 7.28, repro,
2008-06-03,-4.65, 5.18, -3.74, 2.20, 1.60, 7.32, repro,
2008-06-04,-3.34, 4.65, 6.29, 2.18, 1.61, 7.26, repro,
2008-06-05,-3.48, 4.51, -2.90, 2.15, 1.54, 7.03, repro,
2008-06-06,-4.36, 6.35, 4.53, 2.19, 1.59, 7.22, repro,
2008-06-07,-3.43, 4.49, 3.64, 2.21, 1.63, 7.36, repro,
2008-06-08,-3.65, 4.01, -3.84, 2.18, 1.59, 7.15, repro,
2008-06-09,-3.32, 6.35, -0.88, 2.19, 1.59, 7.23, repro,
2008-06-10,-3.73, 7.41, 0.80, 2.16, 1.56, 7.12, repro,
2008-06-11,-5.63, 4.33, -3.56, 2.14, 1.55, 7.06, repro,
2008-06-12,-3.53, 5.54, -6.12, 2.17, 1.58, 7.26, repro,
2008-06-13,-3.09, 5.37, -4.86, 2.14, 1.54, 7.05, repro,
2008-06-14,-1.94, 4.20, -1.76, 2.21, 1.58, 7.25, repro,
2008-06-15,-2.55, 5.56, -2.08, 2.20, 1.59, 7.28, repro,
2008-06-16,-3.34, 4.17, -3.91, 2.16, 1.56, 7.14, repro,
2008-06-17,-3.45, 4.28, -4.68, 2.16, 1.56, 7.15, repro,
2008-06-18,-3.66, 4.23, -4.95, 2.15, 1.55, 7.10, repro,
2008-06-19,-2.57, 3.91, -3.55, 2.16, 1.59, 7.25, repro,
2008-06-20,-2.55, 5.34, -7.11, 2.14, 1.54, 7.07, repro,
2008-06-21,-2.66, 4.24, -6.46, 2.26, 1.62, 7.52, repro,
2008-06-22,-4.21, 3.54, -7.69, 2.15, 1.56, 7.13, repro,
2008-06-23,-2.64, 5.40, -3.85, 2.16, 1.55, 7.09, repro,
2008-06-24,-3.16, 5.26, -2.72, 2.13, 1.54, 6.99, repro,
2008-06-25,-4.49, 4.72, 9.38, 2.17, 1.57, 7.26, repro,
2008-06-26,-2.42, 3.94, 0.82, 2.19, 1.60, 7.29, repro,
2008-06-27,-2.23, 4.38, -3.37, 2.15, 1.55, 7.06, repro,
2008-06-28,-3.65, 3.79, -0.92, 2.19, 1.61, 7.23, repro,
2008-06-29,-2.31, 5.31, -5.36, 2.40, 1.79, 8.12, repro,
2008-06-30,-2.92, 4.35, -5.50, 2.14, 1.56, 7.11, repro,
2008-07-01,-4.52, 5.35, 2.97, 2.16, 1.56, 7.16, repro,
2008-07-02,-1.51, 3.82, -3.14, 2.16, 1.56, 7.10, repro,
2008-07-03,-4.78, 4.29, 0.58, 2.19, 1.62, 7.28, repro,
2008-07-04,-4.80, 3.46, 5.68, 2.13, 1.54, 7.02, repro,
2008-07-05,-4.82, 4.21, 13.72, 2.14, 1.54, 7.05, repro,
2008-07-06,-3.32, 3.67, 8.06, 2.15, 1.55, 7.10, repro,
2008-07-07,0.09, 4.93, 1.90, 2.20, 1.61, 7.30, repro,
2008-07-08,-2.96, 3.60, 2.78, 2.16, 1.55, 7.07, repro,
2008-07-09,-3.89, 4.33, 1.96, 2.14, 1.54, 7.01, repro,
2008-07-10,-3.09, 3.22, 1.46, 2.18, 1.58, 7.13, repro,
2008-07-11,-3.06, 3.54, 0.55, 2.22, 1.59, 7.26, repro,
2008-07-12,-2.02, 3.90, -0.77, 2.16, 1.55, 7.13, repro,
2008-07-13,-2.59, 3.51, 4.98, 2.22, 1.67, 7.49, repro,
2008-07-14,-4.15, 4.06, 4.35, 2.18, 1.56, 7.15, repro,
2008-07-15,-2.63, 3.60, -3.04, 2.15, 1.56, 7.12, repro,
2008-07-16,-3.83, 3.87, 3.21, 2.14, 1.55, 7.07, repro,
2008-07-17,-3.22, 4.68, -1.57, 2.16, 1.56, 7.16, repro,
2008-07-18,-2.29, 4.19, 1.85, 2.28, 1.60, 7.41, repro,
2008-07-19,-4.14, 3.46, 10.12, 2.21, 1.56, 7.21, repro,
2008-07-20,-3.71, 3.40, 9.32, 2.14, 1.54, 7.01, repro,
2008-07-21,-2.31, 3.26, 6.49, 2.13, 1.56, 7.02, repro,
2008-07-22,-4.39, 4.23, 1.05, 2.17, 1.56, 7.15, repro,
2008-07-23,-4.27, 3.16, 5.01, 2.19, 1.56, 7.15, repro,
2008-07-24,-4.42, 4.26, 4.04, 2.16, 1.55, 7.09, repro,
2008-07-25,-2.99, 3.25, 3.75, 2.16, 1.55, 7.03, repro,
2008-07-26,-4.55, 3.67, 1.60, 2.12, 1.55, 7.01, repro,
2008-07-27,-3.82, 4.75, 6.09, 2.15, 1.55, 7.10, repro,
2008-07-28,-3.43, 3.50, 8.44, 2.23, 1.58, 7.23, repro,
2008-07-29,-2.95, 3.85, 14.89, 2.22, 1.56, 7.30, repro,
2008-07-30,-3.72, 3.83, 7.04, 2.22, 1.57, 7.32, repro,
2008-07-31,-4.86, 3.29, 14.13, 2.12, 1.54, 7.01, repro,
2008-08-01,-5.35, 3.34, 10.24, 2.13, 1.55, 7.03, repro,
2008-08-02,-5.73, 3.18, 9.73, 2.14, 1.54, 7.05, repro,
2008-08-03,-3.43, 3.37, 4.56, 2.20, 1.58, 7.29, repro,
2008-08-04,-3.20, 3.26, 4.64, 2.15, 1.53, 7.01, repro,
2008-08-05,-2.64, 2.42, 7.64, 2.13, 1.54, 6.99, repro,
2008-08-06,-4.40, 4.16, 2.90, 2.16, 1.55, 7.05, repro,
2008-08-07,-5.09, 3.71, 8.18, 2.22, 1.61, 7.27, repro,
2008-08-08,-2.48, 3.40, 6.98, 2.26, 1.64, 7.41, repro,
2008-08-09,-3.90, 2.83, 1.34, 2.20, 1.55, 7.14, repro,
2008-08-10,-2.89, 3.92, 5.91, 2.18, 1.55, 7.07, repro,
2008-08-11,-3.90, 3.50, 3.11, 2.18, 1.56, 7.08, repro,
2008-08-12,-5.41, 4.48, 3.23, 2.17, 1.56, 7.12, repro,
2008-08-13,-5.44, 3.16, 10.78, 2.19, 1.56, 7.20, repro,
2008-08-14,-3.69, 3.69, 7.11, 2.20, 1.56, 7.20, repro,
2008-08-15,-3.78, 3.61, 4.77, 2.21, 1.57, 7.23, repro,
2008-08-16,-4.00, 3.71, 6.83, 2.18, 1.56, 7.12, repro,
2008-08-17,-5.24, 2.67, 13.03, 2.17, 1.56, 7.11, repro,
2008-08-18,-5.39, 3.18, 11.38, 2.20, 1.57, 7.19, repro,
2008-08-19,-3.37, 3.18, 6.85, 2.21, 1.56, 7.20, repro,
2008-08-20,-4.88, 2.88, 16.34, 2.21, 1.56, 7.17, repro,
2008-08-21,-4.84, -1.82, 19.56, 2.22, 1.58, 7.29, repro,
2008-08-22,-3.44, 3.29, 9.04, 2.18, 1.56, 7.07, repro,
2008-08-23,-3.53, 3.72, 1.22, 2.17, 1.55, 7.05, repro,
2008-08-24,-3.43, 3.27, 5.76, 2.20, 1.58, 7.22, repro,
2008-08-25,-1.70, 1.22, 5.17, 2.19, 1.56, 7.15, repro,
2008-08-26,-2.13, 1.89, 15.84, 2.28, 1.62, 7.41, repro,
2008-08-27,-4.13, 4.47, 5.18, 2.22, 1.58, 7.23, repro,
2008-08-28,-4.42, 3.07, 3.63, 2.33, 1.65, 7.46, repro,
2008-08-29,-3.60, 3.12, 5.39, 2.20, 1.58, 7.16, repro,
2008-08-30,-6.10, 2.58, 22.79, 2.21, 1.59, 7.25, repro,
2008-08-31,-2.72, 3.63, 13.97, 2.22, 1.59, 7.26, repro,
2008-09-01,-3.08, 2.86, -1.12, 2.23, 1.58, 7.23, repro,
2008-09-02,-2.22, 3.71, -4.32, 2.21, 1.58, 7.18, repro,
2008-09-03,-4.34, 3.49, 0.02, 2.21, 1.59, 7.19, repro,
2008-09-04,-3.28, 3.42, 10.00, 2.34, 1.70, 7.73, repro,
2008-09-05,-3.44, 3.29, 2.39, 2.27, 1.62, 7.38, repro,
2008-09-06,-4.98, 3.94, 2.37, 2.22, 1.58, 7.22, repro,
2008-09-07,-4.12, 3.45, 0.50, 2.21, 1.58, 7.20, repro,
2008-09-08,-4.44, 3.00, 2.97, 2.20, 1.58, 7.18, repro,
2008-09-09,-3.74, 2.87, 8.75, 2.24, 1.59, 7.28, repro,
2008-09-10,-2.47, 3.60, 7.55, 2.23, 1.63, 7.39, repro,
2008-09-11,-3.62, 3.05, 3.31, 2.25, 1.62, 7.38, repro,
2008-09-12,-3.37, 2.71, 7.24, 2.32, 1.68, 7.68, repro,
2008-09-13,-2.54, 3.15, 2.35, 2.30, 1.65, 7.51, repro,
2008-09-14,-2.73, 3.63, 4.15, 2.24, 1.62, 7.36, repro,
2008-09-15,-2.54, 3.16, 7.33, 2.20, 1.58, 7.20, repro,
2008-09-16,-3.35, 4.75, 1.48, 2.18, 1.60, 7.25, repro,
2008-09-17,-3.51, 3.86, -2.95, 2.30, 1.62, 7.42, repro,
2008-09-18,-2.65, 4.11, -0.07, 2.19, 1.55, 7.12, repro,
2008-09-19,-4.16, 3.87, 5.31, 2.19, 1.56, 7.12, repro,
2008-09-20,-3.39, 2.99, 12.13, 2.21, 1.56, 7.16, repro,
2008-09-21,-4.49, 2.03, 7.72, 2.16, 1.55, 7.07, repro,
2008-09-22,-2.33, 3.65, 9.91, 2.18, 1.55, 7.09, repro,
2008-09-23,-3.60, 4.08, 0.98, 2.19, 1.55, 7.12, repro,
2008-09-24,-3.99, 4.05, 3.75, 2.29, 1.65, 7.51, repro,
2008-09-25,-2.69, 3.88, 3.09, 2.21, 1.57, 7.18, repro,
2008-09-26,-3.60, 3.22, 5.54, 2.17, 1.55, 7.11, repro,
2008-09-27,-2.29, 3.12, 3.67, 2.22, 1.60, 7.27, repro,
2008-09-28,-3.02, 3.48, 1.70, 2.18, 1.55, 7.10, repro,
2008-09-29,-3.63, 4.00, -1.42, 2.24, 1.60, 7.26, repro,
2008-09-30,-2.25, 3.95, -1.54, 2.20, 1.56, 7.13, repro,
2008-10-01,-3.46, 3.85, 1.81, 2.17, 1.55, 7.04, repro,
2008-10-02,-3.24, 2.96, 5.69, 2.23, 1.61, 7.32, repro,
2008-10-03,-3.72, 3.31, 3.27, 2.23, 1.59, 7.25, repro,
2008-10-04,-2.57, 3.39, 13.54, 2.21, 1.56, 7.16, repro,
2008-10-05,-3.39, 4.25, 1.69, 2.21, 1.56, 7.15, repro,
2008-10-06,-4.21, 4.28, 4.03, 2.19, 1.55, 7.09, repro,
2008-10-07,-4.86, 3.43, 3.28, 2.21, 1.56, 7.13, repro,
2008-10-08,-3.15, 3.60, 2.13, 2.20, 1.59, 7.21, repro,
2008-10-09,-2.28, 4.04, 1.39, 2.15, 1.54, 7.05, repro,
2008-10-10,-2.90, 3.83, 1.91, 2.14, 1.53, 7.01, repro,
2008-10-11,-2.83, 1.67, -2.02, 2.19, 1.56, 7.13, repro,
2008-10-12,-2.55, 3.00, -3.90, 2.14, 1.55, 7.02, repro,
2008-10-13,-4.01, 3.19, -3.64, 2.14, 1.54, 7.01, repro,
2008-10-14,-3.59, 3.39, -1.90, 2.14, 1.53, 7.02, repro,
2008-10-15,-4.17, 4.12, 1.13, 2.21, 1.55, 7.18, repro,
2008-10-16,-3.44, 3.12, 1.68, 2.21, 1.56, 7.23, repro,
2008-10-17,-3.53, 3.42, -7.51, 2.15, 1.54, 7.06, repro,
2008-10-18,-4.14, 2.64, -6.30, 2.14, 1.54, 7.04, repro,
2008-10-19,-3.56, 3.39, -2.40, 2.13, 1.53, 7.02, repro,
2008-10-20,-3.65, 3.13, 2.42, 2.15, 1.54, 7.05, repro,
2008-10-21,-6.20, 4.97, 6.49, 2.15, 1.54, 7.05, repro,
2008-10-22,-3.62, 3.65, -4.85, 2.14, 1.55, 7.07, repro,
2008-10-23,-3.67, 3.83, 1.17, 2.15, 1.55, 7.06, repro,
2008-10-24,-2.71, 3.07, 1.04, 2.14, 1.54, 7.01, repro,
2008-10-25,-2.56, 3.57, 7.08, 2.13, 1.53, 7.01, repro,
2008-10-26,-3.25, 3.37, -3.52, 2.13, 1.53, 6.95, repro,
2008-10-27,-3.28, 3.96, -5.52, 2.13, 1.54, 7.02, repro,
2008-10-28,-2.62, 3.31, -8.57, 2.25, 1.59, 7.23, repro,
2008-10-29,-3.85, 3.65, -0.57, 2.23, 1.56, 7.11, repro,
2008-10-30,-2.71, 2.66, 0.93, 2.13, 1.54, 7.00, repro,
2008-10-31,-2.77, 4.14, -0.41, 2.22, 1.59, 7.26, repro,
2008-11-01,-3.05, 3.69, 6.30, 2.16, 1.56, 7.14, repro,
2008-11-02,-4.26, 1.65, 4.32, 2.19, 1.61, 7.36, repro,
2008-11-03,-3.10, 3.57, 2.88, 2.19, 1.58, 7.21, repro,
2008-11-04,-4.72, 2.55, 12.64, 2.14, 1.55, 7.06, repro,
2008-11-05,-4.66, 5.82, -0.35, 2.15, 1.55, 7.05, repro,
2008-11-06,-3.23, 4.01, -2.01, 2.16, 1.55, 7.10, repro,
2008-11-07,-4.14, 3.34, -2.92, 2.17, 1.57, 7.18, repro,
2008-11-08,-3.46, 2.47, -0.59, 2.24, 1.67, 7.58, repro,
2008-11-09,-2.25, 2.24, 8.34, 2.18, 1.59, 7.22, repro,
2008-11-10,-2.23, 3.39, 4.90, 2.16, 1.58, 7.13, repro,
2008-11-11,-3.80, 3.05, 1.55, 2.27, 1.67, 7.65, repro,
2008-11-12,-6.38, 3.55, 5.23, 2.17, 1.57, 7.18, repro,
2008-11-13,-3.02, 3.10, 10.63, 2.23, 1.62, 7.30, repro,
2008-11-14,-3.39, 4.28, -0.04, 2.23, 1.66, 7.45, repro,
2008-11-15,-3.59, 2.98, -4.81, 2.23, 1.63, 7.34, repro,
2008-11-16,-3.47, 2.56, -4.06, 2.21, 1.64, 7.36, repro,
2008-11-17,-3.89, 3.07, -3.65, 2.26, 1.69, 7.61, repro,
2008-11-18,-3.82, 3.86, -7.24, 2.27, 1.70, 7.75, repro,
2008-11-19,-3.33, 3.21, -4.79, 2.20, 1.61, 7.32, repro,
2008-11-20,-4.45, 3.64, -4.97, 2.25, 1.67, 7.49, repro,
2008-11-21,-3.71, 4.69, -4.89, 2.36, 1.81, 8.18, repro,
2008-11-22,-2.67, 2.61, 1.69, 2.34, 1.72, 7.90, repro,
2008-11-23,-4.05, 3.47, -0.23, 2.30, 1.70, 7.65, repro,
2008-11-24,-2.56, 4.26, -5.28, 2.34, 1.73, 7.73, repro,
2008-11-25,-4.41, 3.71, -2.03, 2.25, 1.70, 7.55, repro,
2008-11-26,-2.76, 3.18, -0.64, 2.14, 1.55, 7.04, repro,
2008-11-27,-2.41, 3.35, -0.31, 2.18, 1.63, 7.35, repro,
2008-11-28,-4.65, 2.95, 3.72, 2.24, 1.69, 7.50, repro,
2008-11-29,-7.87, 7.62, 5.44, 2.32, 1.77, 7.90, repro,
2008-11-30,-2.67, 3.55, -1.74, 2.16, 1.56, 7.10, repro,
2008-12-01,-3.40, 3.68, -1.64, 2.14, 1.56, 7.07, repro,
2008-12-02,-3.16, 3.06, -0.60, 2.27, 1.68, 7.57, repro,
2008-12-03,-3.32, 4.12, 0.68, 2.22, 1.66, 7.41, repro,
2008-12-04,-3.16, 4.08, -3.60, 2.25, 1.73, 7.64, repro,
2008-12-05,-3.63, 3.53, -2.86, 2.21, 1.64, 7.31, repro,
2008-12-06,-2.16, 3.55, -2.22, 2.31, 1.81, 7.91, repro,
2008-12-07,-2.19, 3.79, -2.72, 2.24, 1.74, 7.73, repro,
2008-12-08,-1.75, 5.33, 5.54, 2.18, 1.64, 7.37, repro,
2008-12-09,-2.90, 3.10, -2.97, 2.18, 1.60, 7.19, repro,
2008-12-10,-3.01, 3.03, -8.73, 2.15, 1.54, 7.07, repro,
2008-12-11,-2.44, 3.29, -5.47, 2.31, 1.70, 7.64, repro,
2008-12-12,-3.44, 3.73, 2.34, 2.33, 1.78, 7.97, repro,
2008-12-13,-0.64, 3.29, 6.21, 2.17, 1.57, 7.18, repro,
2008-12-14,-2.70, 4.37, 4.87, 2.13, 1.53, 7.01, repro,
2008-12-15,-2.85, 3.89, 1.02, 2.15, 1.55, 7.07, repro,
2008-12-16,-3.74, 3.11, 3.30, 2.13, 1.53, 7.00, repro,
2008-12-17,-3.97, 3.40, -2.76, 2.22, 1.59, 7.31, repro,
2008-12-18,-2.62, 2.94, 1.83, 2.13, 1.53, 7.02, repro,
2008-12-19,-3.38, 3.42, 4.08, 2.19, 1.55, 7.22, repro,
2008-12-20,-2.83, 4.41, 0.49, 2.13, 1.54, 7.04, repro,
2008-12-21,-3.04, 3.15, -4.23, 2.14, 1.54, 7.09, repro,